Location: Agadir Irigdalene
(31.2522°N, 8.7797°W)
Time: 15:27:00
(UTC+00:00)

CZ-2C R/B - Pass Details

Date: 01 December 2020
Orbit: 705 x 907 km, 98.1° (Epoch: 25 January)

Event Time Altitude Azimuth Distance (km) Brightness Sun altitude
Rises 18:50:36 0° 151° (SSE) 3,274 6.1 -16.5°
Reaches altitude 10° 18:53:03 10° 145° (SE) 2,317 5.3 -17.0°
Maximum altitude 18:57:51 45° 74° (ENE) 1,020 3.2 -18.0°
Drops below altitude 10° 19:02:29 10° 3° (N) 2,226 5.2 -19.0°
Sets 19:04:47 0° 357° (N) 3,132 6.1 -19.4°
